This is the latest recevied weather packets stored in our database for station/object KB2M. If no packets are shown the sender has not sent any weather packets the latest 10 day(s).
| Time | Temp. | Humidity | Pressure | Rain* | Wind** | Luminosity | Snow |
|---|---|---|---|---|---|---|---|
| 1777922800 | 24.44° C | 57% | 1018.2 hPa | 0 mm | - | - | - |
| 1777922200 | 23.89° C | 56% | 1018.2 hPa | 0 mm | - | - | - |
| 1777921599 | 23.89° C | 56% | 1018.9 hPa | 0 mm | - | - | - |
| 1777920999 | 24.44° C | 57% | 1018.9 hPa | 0 mm | - | - | - |
| 1777920398 | 23.33° C | 57% | 1018.9 hPa | 0 mm | - | - | - |
| 1777919798 | 23.33° C | 57% | 1019.3 hPa | 0 mm | - | - | - |
| 1777919197 | 23.33° C | 57% | 1019.3 hPa | 0 mm | - | - | - |
| 1777918597 | 23.33° C | 58% | 1019.3 hPa | 0 mm | - | - | - |
| 1777917997 | 23.33° C | 57% | 1019.3 hPa | 0 mm | - | - | - |
| 1777917396 | 23.33° C | 57% | 1019.3 hPa | 0 mm | - | - | - |
| 1777916767 | 23.33° C | 58% | 1019.3 hPa | 0 mm | - | - | - |
| 1777916165 | 23.33° C | 57% | 1019.6 hPa | 0 mm | - | - | - |
| 1777915565 | 22.78° C | 56% | 1019.6 hPa | 0 mm | - | - | - |
| 1777914964 | 23.33° C | 56% | 1019.6 hPa | 0 mm | - | - | - |
| 1777914364 | 22.78° C | 56% | 1019.6 hPa | 0 mm | - | - | - |
| 1777913763 | 22.78° C | 56% | 1019.9 hPa | 0 mm | - | - | - |
| 1777913162 | 23.33° C | 56% | 1019.6 hPa | 0 mm | - | - | - |
| 1777912562 | 22.78° C | 55% | 1019.9 hPa | 0 mm | - | - | - |
| 1777911961 | 23.33° C | 55% | 1019.9 hPa | 0 mm | - | - | - |
| 1777911361 | 23.33° C | 55% | 1019.9 hPa | 0 mm | - | - | - |
| 1777910761 | 22.78° C | 57% | 1019.9 hPa | 0 mm | - | - | - |
| 1777910160 | 22.78° C | 57% | 1019.9 hPa | 0 mm | - | - | - |
| 1777909559 | 22.78° C | 55% | 1019.9 hPa | 0 mm | - | - | - |
| 1777908959 | 23.33° C | 56% | 1020.3 hPa | 0 mm | - | - | - |
| 1777908358 | 22.78° C | 55% | 1020.3 hPa | 0 mm | - | - | - |
* Rain latest hour (hover to see other rain measurements)
** Current wind speed in m/s (hover to see current wind gust speed)